Weather History for K2WX - October, 2012

Change the Weather History Date:

Thursday, October 11, 2012

  Actual Average Record
Temperature  
Mean Temperature 36 °F 47 °F  
Max Temperature 40 °F 60 °F 81 °F (1997)
Min Temperature 31 °F 35 °F 21 °F (2006)
Degree Days  
Heating Degree Days 29 18  
Month to date heating degree days 241 177  
Since 1 July heating degree days 400 468  
Cooling Degree Days 0 0  
Month to date cooling degree days 0 0  
Year to date cooling degree days 853 512  
Moisture  
Dew Point 31 °F    
Average Humidity 86    
Maximum Humidity 96    
Minimum Humidity 75    
Precipitation  
Precipitation 0.01 in 0.01 in 0.39 in (2008)
Month to date precipitation 0.08 0.09  
Year to date precipitation 7.67 13.31  
Sea Level Pressure  
Sea Level Pressure 30.22 in    
Wind  
Wind Speed 10 mph (ENE)    
Max Wind Speed 26 mph    
Max Gust Speed 33 mph    
T = Trace of Precipitation, MM = Missing Value Source: NWS Daily Summary

Daily Weather History Graph

Daily Weather History Graph

Search for Another Location

Airport or City:

Trip Planner

Search our weather history database for the weather conditions in past years. The results will help you decide how hot, cold, wet, or windy it might be!

Date:

Astronomy

Oct. 11, 2012 Rise Set
Actual Time 7:06 AM MDT 6:14 PM MDT
Civil Twilight 6:36 AM MDT 6:44 PM MDT
Nautical Twilight 6:01 AM MDT 7:18 PM MDT
Astronomical Twilight 5:27 AM MDT 7:53 PM MDT
Moon 2:35 AM MDT (10/11) 4:02 PM MDT (10/11)
Length of Visible Light 12h 08m
Length of Day
11h 08m
Waning Crescent, 18% of the Moon is Illuminated
Oct 11
Waning Crescent
Oct 15
New
Oct 21
First Quarter
Oct 29
Full
Nov 6
Last Quarter

Hourly Weather History & Observations

Time (MDT) Temp. Windchill Dew Point Humidity Pressure Visibility Wind Dir Wind Speed Gust Speed Precip Events Conditions
12:56 AM 39.9 °F 32.5 °F 34.0 °F 79% 30.01 in - NNE 12.7 mph - N/A   Unknown
1:56 AM 39.0 °F 30.6 °F 33.1 °F 79% 30.02 in - NNE 15.0 mph - N/A   Unknown
2:56 AM 37.9 °F 30.0 °F 33.1 °F 83% 30.06 in - NNE 12.7 mph - N/A   Unknown
3:56 AM 37.0 °F 31.6 °F 30.9 °F 79% 30.09 in - NNE 6.9 mph - N/A   Unknown
4:56 AM 37.0 °F 30.4 °F 30.0 °F 76% 30.12 in - NNE 9.2 mph - N/A   Unknown
5:56 AM 37.0 °F 31.6 °F 30.9 °F 79% 30.15 in - NNE 6.9 mph - N/A   Unknown
6:56 AM 36.0 °F 33.3 °F 30.9 °F 82% 30.19 in - North 3.5 mph - N/A   Unknown
7:56 AM 36.0 °F 30.3 °F 32.0 °F 86% 30.20 in - North 6.9 mph - N/A   Unknown
8:56 AM 35.1 °F 25.9 °F 32.0 °F 89% 30.25 in - NE 13.8 mph - N/A   Unknown
9:56 AM 33.1 °F 24.4 °F 32.0 °F 96% 30.29 in - ENE 11.5 mph - N/A   Unknown
10:56 AM 34.0 °F 25.5 °F 30.9 °F 89% 30.30 in - ENE 11.5 mph - 0.01 in   Unknown
11:56 AM 34.0 °F 27.2 °F 32.0 °F 92% 30.32 in - East 8.1 mph - N/A   Unknown
12:56 PM 35.1 °F 28.6 °F 30.9 °F 85% 30.31 in - ENE 8.1 mph - N/A   Unknown
1:56 PM 36.0 °F 29.6 °F 28.9 °F 76% 30.29 in - East 8.1 mph - N/A   Unknown
2:56 PM 37.0 °F 33.3 °F 30.0 °F 76% 30.28 in - ESE 4.6 mph - N/A   Unknown
3:56 PM 37.9 °F 33.5 °F 30.9 °F 76% 30.28 in - ESE 5.8 mph - N/A   Unknown
4:56 PM 37.9 °F 33.5 °F 30.9 °F 76% 30.27 in - ESE 5.8 mph - N/A   Unknown
5:56 PM 37.9 °F 32.1 °F 30.9 °F 76% 30.27 in - ESE 8.1 mph - N/A   Unknown
6:56 PM 37.0 °F 31.0 °F 30.9 °F 79% 30.27 in - ESE 8.1 mph - N/A   Unknown
7:56 PM 37.0 °F 31.0 °F 30.0 °F 76% 30.27 in - ESE 8.1 mph - N/A   Unknown
8:56 PM 37.0 °F 29.8 °F 33.1 °F 86% 30.26 in - SE 10.4 mph - N/A   Unknown
9:56 PM 36.0 °F 27.1 °F 30.9 °F 82% 30.25 in - SE 13.8 mph - N/A   Unknown
10:56 PM 33.1 °F 23.0 °F 30.0 °F 89% 30.24 in - SE 15.0 mph - N/A   Unknown
11:56 PM 32.0 °F 22.5 °F 30.0 °F 92% 30.22 in - SE 12.7 mph - N/A   Unknown